EW8555 Weather Reports


Display with metric or nautical units.
time (UTC)temp
F
wind
direction
speed
MPH
gust
MPH
rain 1hr
in
rain 24hr
in
rain mn
in
humidity
%
barometer
mb
20260902224515 60 235 1.0 4.0 0.00 0.00 0.00 81 1016.5
20260902223017 60 236 0.0 4.0 0.00 0.00 0.00 81 1016.6
20260902221610 60 229 1.0 4.0 0.00 0.00 0.00 80 1016.6
20260902220008 61 229 1.0 3.0 0.00 0.00 0.00 80 1016.7
20260902214507 61 229 1.0 4.0 0.00 0.00 0.00 79 1016.7
20260902213007 61 229 0.0 3.0 0.00 0.00 0.00 79 1016.8
20260902211512 61 279 0.0 3.0 0.00 0.00 0.00 79 1016.8
20260902210007 62 281 0.0 2.0 0.00 0.00 0.00 78 1016.7
20260902204505 62 281 1.0 3.0 0.00 0.00 0.00 78 1016.7
20260902203005 63 281 2.0 4.0 0.00 0.00 0.00 77 1016.5
20260902201504 63 283 1.0 2.0 0.00 0.00 0.00 77 1016.5
20260902200004 64 289 1.0 3.0 0.00 0.00 0.00 76 1016.4
20260902194502 65 290 0.0 1.0 0.00 0.00 0.00 73 1016.4
20260902193002 65 290 0.0 1.0 0.00 0.00 0.00 71 1016.4
20260902191502 66 289 1.0 3.0 0.00 0.00 0.00 70 1016.5
20260902190003 66 290 0.0 1.0 0.00 0.00 0.00 69 1016.6
20260902184501 67 290 0.0 2.0 0.00 0.00 0.00 68 1016.6
20260902183111 67 290 0.0 3.0 0.00 0.00 0.00 66 1016.4
20260902181612 68 290 0.0 0.0 0.00 0.00 0.00 66 1016.3
20260902180059 68 290 1.0 2.0 0.00 0.00 0.00 65 1016.1
20260902174600 69 290 1.0 2.0 0.00 0.00 0.00 64 1016.0
20260902173116 70 290 1.0 2.0 0.00 0.00 0.00 61 1015.9
20260902171558 70 290 1.0 2.0 0.00 0.00 0.00 58 1015.8
20260902170057 71 290 1.0 3.0 0.00 0.00 0.00 57 1015.8
20260902164603 71 263 1.0 5.0 0.00 0.00 0.00 56 1015.9
20260902163057 72 229 0.0 6.0 0.00 0.00 0.00 54 1016.0
20260902161555 73 248 5.0 11.0 0.00 0.00 0.00 53 1015.9
20260902160054 73 225 2.0 9.0 0.00 0.00 0.00 53 1016.0
20260902154552 73 249 3.0 9.0 0.00 0.00 0.00 53 1016.1
20260902153059 73 213 4.0 11.0 0.00 0.00 0.00 53 1016.2
20260902151548 72 241 3.0 7.0 0.00 0.00 0.00 63 1016.2
20260902150045 72 206 2.0 5.0 0.00 0.00 0.00 56 1016.4
20260902144545 71 225 0.0 5.0 0.00 0.01 0.00 57 1016.4
20260902143046 71 211 3.0 6.0 0.00 0.01 0.00 56 1016.5
20260902141542 71 251 2.0 9.0 0.00 0.01 0.00 56 1016.7
20260902140041 72 209 5.0 10.0 0.00 0.01 0.00 55 1016.7
20260902134537 71 240 3.0 12.0 0.00 0.02 0.00 57 1016.7
20260902133037 71 237 2.0 8.0 0.00 0.02 0.00 56 1016.9
20260902131535 71 251 2.0 4.0 0.00 0.02 0.00 56 1017.0
20260902130033 71 236 1.0 8.0 0.00 0.02 0.00 55 1017.1
20260902124533 71 248 3.0 10.0 0.00 0.02 0.00 55 1017.1
20260902123032 70 329 3.0 10.0 0.00 0.02 0.00 56 1017.2
20260902121531 70 242 2.0 8.0 0.00 0.02 0.00 55 1017.3
20260902120030 71 234 3.0 8.0 0.00 0.02 0.00 57 1017.4
20260902114528 70 242 3.0 9.0 0.00 0.02 0.00 60 1017.5
20260902113027 69 308 3.0 8.0 0.00 0.02 0.00 60 1017.6
20260902111526 69 288 2.0 10.0 0.00 0.02 0.00 63 1017.6
20260902110036 69 307 2.0 10.0 0.00 0.02 0.00 62 1017.8
20260902104543 69 229 2.0 8.0 0.00 0.03 0.00 62 1017.8
20260902103044 70 240 4.0 9.0 0.00 0.03 0.00 61 1017.9
20260902101522 69 200 2.0 11.0 0.00 0.03 0.00 64 1017.9
20260902100021 69 190 8.0 15.0 0.00 0.03 0.00 65 1018.0
20260902094519 68 281 5.0 13.0 0.00 0.03 0.00 66 1018.1
20260902093020 68 201 3.0 14.0 0.00 0.03 0.00 67 1018.1
20260902091517 68 207 5.0 10.0 0.00 0.03 0.00 70 1018.2
20260902090024 68 190 5.0 9.0 0.00 0.03 0.00 71 1018.2
20260902084512 66 199 3.0 9.0 0.00 0.03 0.00 73 1018.2
20260902083010 66 221 2.0 8.0 0.00 0.03 0.00 73 1018.2
20260902081510 66 267 3.0 10.0 0.00 0.03 0.00 72 1018.4
20260902080007 65 260 3.0 6.0 0.00 0.03 0.00 74 1018.3
20260902074504 65 205 1.0 5.0 0.00 0.03 0.00 75 1018.2
20260902073001 64 169 1.0 5.0 0.00 0.03 0.00 77 1018.1
20260902071557 63 227 1.0 4.0 0.00 0.03 0.00 80 1018.2
20260902070054 62 227 0.0 3.0 0.00 0.03 0.00 85 1018.0
20260902064602 59 227 0.0 5.0 0.00 0.03 0.00 88 1018.2
20260902063107 59 209 2.0 4.0 0.00 0.03 0.00 88 1018.3
20260902061611 58 211 1.0 3.0 0.00 0.03 0.00 90 1018.2
20260902060052 58 211 0.0 3.0 0.00 0.03 0.00 91 1018.2
20260902054553 57 244 0.0 3.0 0.00 0.03 0.00 93 1018.3
20260902053051 56 244 0.0 3.0 0.00 0.03 0.00 94 1018.1
20260902051602 55 244 0.0 3.0 0.00 0.03 0.00 94 1018.3
20260902050051 54 275 0.0 2.0 0.00 0.03 0.00 94 1018.3
20260902044606 54 276 0.0 4.0 0.00 0.03 0.00 94 1018.4
20260902043048 54 247 0.0 4.0 0.00 0.03 0.00 94 1018.4
20260902041546 55 244 1.0 4.0 0.00 0.03 0.00 94 1018.1
20260902040042 55 234 0.0 3.0 0.00 0.03 0.00 94 1017.8
20260902034540 56 227 1.0 4.0 0.00 0.03 0.00 94 1017.6
20260902033039 55 224 1.0 4.0 0.00 0.03 0.00 93 1017.5
20260902031552 56 205 1.0 3.0 0.00 0.03 0.00 94 1017.4
20260902030037 56 244 2.0 4.0 0.00 0.03 0.00 92 1017.4
20260902024542 56 244 0.0 3.0 0.00 0.03 0.00 92 1017.4
20260902023033 56 244 0.0 2.0 0.00 0.03 0.00 91 1017.4
20260902021531 57 244 0.0 2.0 0.00 0.03 0.00 91 1017.6
20260902020030 57 244 0.0 0.0 0.00 0.03 0.00 91 1017.6
20260902014536 57 244 0.0 0.0 0.00 0.03 0.00 91 1017.7
20260902013031 57 244 0.0 2.0 0.00 0.03 0.00 90 1017.7
20260902011530 57 244 0.0 2.0 0.00 0.03 0.00 90 1017.7
20260902010029 58 244 0.0 3.0 0.00 0.03 0.00 89 1017.7
20260902004523 58 268 0.0 4.0 0.00 0.03 0.00 89 1017.6
20260902003020 59 243 2.0 4.0 0.00 0.03 0.00 88 1017.5
20260902001518 59 238 0.0 6.0 0.00 0.03 0.00 88 1017.4
20260902000016 59 238 2.0 6.0 0.00 0.03 0.00 88 1017.3
20260901234514 60 225 2.0 5.0 0.00 0.03 0.00 88 1017.2
20260901233013 60 251 2.0 7.0 0.00 0.03 0.00 87 1017.1
20260901231516 60 247 1.0 5.0 0.00 0.03 0.00 86 1017.2
20260901230010 61 259 3.0 5.0 0.00 0.03 0.00 86 1017.2